OBJECT G, 44316

Orbit data source: Space-Track

You're viewing an Uncataloged Satellite

Recently launched and/or uncataloged satellites may have evolving metadata. Metadata may include but not limited to: Owner, Maufacturer, Bus, Motor, and Mission.

OBJECT G, 44316 is a satellite owned by CETG (CN) in LEO that was launched on Wed, 05 Jun 2019 UTC via a CHANG ZHENG 11 launch vehicle from the Yellow Sea Launch Area, China (YSLA). Unknown objects in Earth's orbit typically refer to objects detected orbiting the Earth but have not yet been identified or cataloged. These objects could be anything from previously untracked satellites, spent rocket stages, debris from satellite collisions, or even natural meteoroids temporarily captured by Earth's gravity.

Loading next visibility...
OBJECT G details
Identifier
44316, 2019-032G
Orbit
LEO
Last TLE update8 hours ago
Origin
Flag of CNCETG (CN / PRC)
ManufacturerDKJ?
MissionCommercial Technology
Bus & MotorTIANDI, Unknown motor
Mass65 kg wet, 65 kg dry
Launch date (UTC)
2019-06-05 (6 years ago)
Launch vehicle
CHANG ZHENG 11
Launch site
Yellow Sea Launch Area, China (YSLA)
Object typeUnknown
Shape & HBRBox, 1 m
Radar Cross Section1.500 m², Medium (>0.1 m² and < 1m²)

Expand to show TLE details & history

TLE from 8 hours ago
0 OBJECT G
1 44316U 19032G   24340.11201962  .00014667  00000-0  85109-3 0  9998
2 44316  44.9771 198.1962 0012605 297.7141  62.2456 15.12028382302050
Epoch: 2024-12-05T02:41Z
Definitive object data (Epoch: 2024-12-05T02:41:18.495Z)
Latitude-0.00005°
Longitude83.47159°
Altitude525.965 km
Speed7.604 km/s
True Right ascension13h 12m 47s
True Declination0° 00' 00"
Sunlit
Object was in daylight at TLE epoch
Visualization TLE readout
Latitude-37.97284°
Longitude30.79438°
Altitude532.721 km
Speed7.601 km/s
Apparent Right ascension13h 55m 07s
Apparent Declination-76° 53' 10"
Sunlit
Object is in daylight
Visualization observer readout
Local Sidereal Time08:19:29
Azimuth163.516° S
Elevation-37.334°
Doppler factor1
Orbital elements
Apogee altitude540.327 km
Perigee altitude522.907 km
Semi-major axis6,909.754 km
Eccentricity0.0012605
Inclination44.9771°
RAAN198.1962°
Arg. of periapsis297.7141°
True anomaly62.37352°
Mean anomaly62.2456°
Eccentric anomaly62.30955°
Mean motion3.77876 °/min
BSTAR0.00085109
Orbital period95.27 mins
Loading maneuver chart data...
Loading historical data...
Loading historical data...
Loading historical data...
Loading historical data...
Loading historical data...
Loading historical data...
Loading historical data...

OBJECT G Visibility forecast

Observer location: undefined°, undefined

Span
Click to sort rows by Start time (UTC) header in descending order
Start Az.
Max El. time (UTC)
Max El. Az.
Max El.
End time (UTC)
End Az.
5 mins2024-12-05 17:08:07.045Z184.663° SSW2024-12-05 17:10:07.045Z150.76° SSE19.828°2024-12-05 17:13:07.045Z95.992° ESE
7 mins2024-12-05 18:47:07.045Z248.162° W2024-12-05 18:50:07.045Z1.145° NNE44.889°2024-12-05 18:54:07.045Z66.077° ENE
5 mins2024-12-05 20:28:07.045Z297.523° NW2024-12-05 20:30:07.045Z350.59° N33.074°2024-12-05 20:33:07.045Z60.463° ENE
6 mins2024-12-05 22:08:07.045Z305.004° NW2024-12-05 22:10:07.045Z350.085° N36.998°2024-12-05 22:14:07.045Z89.734° E
6 mins2024-12-05 23:48:07.045Z276.98° WNW2024-12-05 23:50:07.045Z227.848° WSW36.69°2024-12-05 23:54:07.045Z136.951° SSE
|